Tracking 31027 objects as of 19-Jul-2025
HD Live streaming from Space Station
objects crossing your sky now

THORAD AGENA D DEB

Track THORAD AGENA D DEB now!
10-day predictions


NORAD ID: 42537
Int'l Code: 1970-025ST
Perigee: 955.1 km
Apogee: 968.8 km
Inclination: 100.0 °
Period: 104.2 minutes
Semi major axis: 7332 km
RCS: Unknown
Launch date: April 8, 1970
Source: United States (US)
Launch site: AIR FORCE WESTERN TEST RANGE (AFWTR)

Note: This is SATELLITE DEBRIS
Your satellite tracking list
STARLINK-6351
Track 1 satellite(s)




NASA's NSSDC Master Catalog

Two Line Element Set (TLE):
1 42537U 70025ST  25196.89053084  .00000568  00000-0  56921-3 0  9990
2 42537 100.0440  71.0045 0009379  33.1718 327.0019 13.82564564  6169
Source of the keplerian elements: AFSPC